Time,TemperatureF,DewpointF,PressureIn,WindDirection,WindDirectionDegrees,WindSpeedMPH,WindSpeedGustMPH,Humidity,HourlyPrecipIn,Conditions,Clouds,dailyrainin,SoftwareType,DateUTC
2013-02-05 00:04:00,45.5,41.3,30.11,SSE,158,0.0,0.0,85,0.00,,,0.00,WUHU216HW,2013-02-05 08:04:00,
2013-02-05 00:09:00,45.5,41.3,30.11,SSE,158,0.0,0.0,85,0.00,,,0.00,WUHU216HW,2013-02-05 08:09:00,
2013-02-05 00:14:00,45.4,41.1,30.11,SSE,158,0.0,0.0,85,0.00,,,0.00,WUHU216HW,2013-02-05 08:14:00,
2013-02-05 00:19:00,45.4,41.1,30.11,SSE,158,0.0,0.0,85,0.00,,,0.00,WUHU216HW,2013-02-05 08:19:00,
2013-02-05 00:24:00,45.2,41.0,30.11,SSE,158,0.0,0.0,85,0.00,,,0.00,WUHU216HW,2013-02-05 08:24:00,
2013-02-05 00:29:00,45.0,40.8,30.11,SSE,158,0.0,0.0,85,0.00,,,0.00,WUHU216HW,2013-02-05 08:29:00,
2013-02-05 00:34:00,45.0,40.8,30.11,SSE,158,0.0,0.0,85,0.00,,,0.00,WUHU216HW,2013-02-05 08:34:00,
2013-02-05 00:39:00,44.8,40.9,30.11,SSW,203,0.4,0.4,86,0.00,,,0.00,WUHU216HW,2013-02-05 08:39:00,
2013-02-05 00:45:00,44.8,40.9,30.11,SSE,158,0.2,0.4,86,0.00,,,0.00,WUHU216HW,2013-02-05 08:45:00,
2013-02-05 00:50:00,44.8,40.9,30.11,SE,135,0.0,1.1,86,0.00,,,0.00,WUHU216HW,2013-02-05 08:50:00,
2013-02-05 00:55:00,44.8,41.2,30.11,SE,135,0.4,1.3,87,0.00,,,0.00,WUHU216HW,2013-02-05 08:55:00,
2013-02-05 01:00:00,45.0,41.4,30.11,South,180,0.0,1.3,87,0.00,,,0.00,WUHU216HW,2013-02-05 09:00:00,
2013-02-05 01:05:00,44.8,41.2,30.11,SSW,203,0.0,0.7,87,0.00,,,0.00,WUHU216HW,2013-02-05 09:05:00,
2013-02-05 01:10:00,44.8,41.2,30.11,South,180,0.7,0.7,87,0.00,,,0.00,WUHU216HW,2013-02-05 09:10:00,
2013-02-05 01:15:00,44.8,41.2,30.10,SSW,203,0.4,2.5,87,0.00,,,0.00,WUHU216HW,2013-02-05 09:15:00,
2013-02-05 01:20:00,44.8,41.2,30.11,SE,135,1.3,2.5,87,0.00,,,0.00,WUHU216HW,2013-02-05 09:20:00,
2013-02-05 01:25:00,44.8,41.2,30.11,SSE,158,0.2,1.3,87,0.00,,,0.00,WUHU216HW,2013-02-05 09:25:00,
2013-02-05 01:30:00,44.8,41.2,30.11,SSW,203,1.8,1.8,87,0.00,,,0.00,WUHU216HW,2013-02-05 09:30:00,
2013-02-05 01:35:00,44.8,41.2,30.11,SSW,203,1.3,1.8,87,0.00,,,0.00,WUHU216HW,2013-02-05 09:35:00,
2013-02-05 01:40:00,44.8,41.2,30.11,SW,225,0.0,1.6,87,0.00,,,0.00,WUHU216HW,2013-02-05 09:40:00,
2013-02-05 01:46:00,44.6,41.1,30.11,SSW,203,0.0,1.1,87,0.00,,,0.00,WUHU216HW,2013-02-05 09:46:00,
2013-02-05 01:51:00,44.5,40.9,30.11,SSE,158,0.0,0.4,87,0.00,,,0.00,WUHU216HW,2013-02-05 09:51:00,
2013-02-05 01:56:00,44.3,40.7,30.11,SSE,158,0.4,0.4,87,0.00,,,0.00,WUHU216HW,2013-02-05 09:56:00,
2013-02-05 02:01:00,44.3,40.7,30.12,SSE,158,0.0,0.4,87,0.00,,,0.00,WUHU216HW,2013-02-05 10:01:00,
2013-02-05 02:06:00,44.1,40.5,30.11,South,180,0.2,1.1,87,0.00,,,0.00,WUHU216HW,2013-02-05 10:06:00,
2013-02-05 02:11:00,44.1,40.5,30.11,SSE,158,1.3,1.8,87,0.00,,,0.00,WUHU216HW,2013-02-05 10:11:00,
2013-02-05 02:16:00,44.3,40.7,30.11,SSE,158,0.0,1.8,87,0.00,,,0.00,WUHU216HW,2013-02-05 10:16:00,
2013-02-05 02:21:00,44.1,40.8,30.11,SW,225,1.1,1.1,88,0.00,,,0.00,WUHU216HW,2013-02-05 10:21:00,
2013-02-05 02:26:00,44.3,41.0,30.11,SSE,158,0.4,1.1,88,0.00,,,0.00,WUHU216HW,2013-02-05 10:26:00,
2013-02-05 02:31:00,44.3,41.0,30.11,South,180,0.4,0.4,88,0.00,,,0.00,WUHU216HW,2013-02-05 10:31:00,
2013-02-05 02:36:00,44.3,41.0,30.11,SSE,158,0.4,2.7,88,0.00,,,0.00,WUHU216HW,2013-02-05 10:36:00,
2013-02-05 02:41:00,44.3,41.0,30.11,SSE,158,0.2,2.7,88,0.00,,,0.00,WUHU216HW,2013-02-05 10:41:00,
2013-02-05 02:46:00,44.3,41.0,30.11,SSE,158,0.4,1.6,88,0.00,,,0.00,WUHU216HW,2013-02-05 10:46:00,
2013-02-05 02:52:00,44.1,40.8,30.11,SSE,158,0.4,1.6,88,0.00,,,0.00,WUHU216HW,2013-02-05 10:52:00,
2013-02-05 02:57:00,44.1,40.8,30.11,SSE,158,0.2,1.6,88,0.00,,,0.00,WUHU216HW,2013-02-05 10:57:00,
2013-02-05 03:02:00,44.1,40.8,30.10,ESE,113,0.4,2.0,88,0.00,,,0.00,WUHU216HW,2013-02-05 11:02:00,
2013-02-05 03:07:00,44.1,40.8,30.11,South,180,1.8,3.4,88,0.00,,,0.00,WUHU216HW,2013-02-05 11:07:00,
2013-02-05 03:12:00,44.1,40.8,30.11,SSE,158,0.2,3.4,88,0.00,,,0.00,WUHU216HW,2013-02-05 11:12:00,
2013-02-05 03:17:00,43.9,40.6,30.10,SSW,203,2.5,2.5,88,0.00,,,0.00,WUHU216HW,2013-02-05 11:17:00,
2013-02-05 03:22:00,43.9,40.6,30.11,South,180,0.2,2.5,88,0.00,,,0.00,WUHU216HW,2013-02-05 11:22:00,
2013-02-05 03:27:00,43.9,40.6,30.10,SSW,203,0.2,2.5,88,0.00,,,0.00,WUHU216HW,2013-02-05 11:27:00,
2013-02-05 03:32:00,43.9,40.6,30.10,SSW,203,0.9,1.8,88,0.00,,,0.00,WUHU216HW,2013-02-05 11:32:00,
2013-02-05 03:37:00,43.9,40.6,30.10,ESE,113,0.9,2.0,88,0.00,,,0.00,WUHU216HW,2013-02-05 11:37:00,
2013-02-05 03:42:00,43.9,40.6,30.10,SSW,203,0.9,2.0,88,0.00,,,0.00,WUHU216HW,2013-02-05 11:42:00,
2013-02-05 03:47:00,43.7,40.4,30.10,South,180,2.0,2.0,88,0.00,,,0.00,WUHU216HW,2013-02-05 11:47:00,
2013-02-05 03:52:00,43.7,40.4,30.11,SE,135,0.9,2.0,88,0.00,,,0.00,WUHU216HW,2013-02-05 11:52:00,
2013-02-05 03:57:00,43.6,40.2,30.10,SSE,158,0.2,1.1,88,0.00,,,0.00,WUHU216HW,2013-02-05 11:57:00,
2013-02-05 04:02:00,43.6,40.2,30.10,ESE,113,1.1,1.8,88,0.00,,,0.00,WUHU216HW,2013-02-05 12:02:00,
2013-02-05 04:08:00,43.6,40.2,30.09,SSE,158,0.7,2.0,88,0.00,,,0.00,WUHU216HW,2013-02-05 12:08:00,
2013-02-05 04:13:00,43.6,40.6,30.09,SE,135,2.0,2.5,89,0.00,,,0.00,WUHU216HW,2013-02-05 12:13:00,
2013-02-05 04:18:00,43.6,40.2,30.09,SW,225,1.8,2.5,88,0.00,,,0.00,WUHU216HW,2013-02-05 12:18:00,
2013-02-05 04:23:00,43.6,40.2,30.09,SSE,158,0.9,2.9,88,0.00,,,0.00,WUHU216HW,2013-02-05 12:23:00,
2013-02-05 04:28:00,43.6,40.2,30.09,SE,135,2.9,2.9,88,0.00,,,0.00,WUHU216HW,2013-02-05 12:28:00,
2013-02-05 04:33:00,43.6,40.2,30.09,SW,225,3.4,3.4,88,0.00,,,0.00,WUHU216HW,2013-02-05 12:33:00,
2013-02-05 04:38:00,43.6,40.2,30.09,South,180,0.9,3.4,88,0.00,,,0.00,WUHU216HW,2013-02-05 12:38:00,
2013-02-05 04:43:00,43.6,40.2,30.09,SW,225,1.8,2.9,88,0.00,,,0.00,WUHU216HW,2013-02-05 12:43:00,
2013-02-05 04:48:00,43.6,40.2,30.10,South,180,0.7,3.1,88,0.00,,,0.00,WUHU216HW,2013-02-05 12:48:00,
2013-02-05 04:53:00,43.6,40.2,30.09,SSE,158,0.2,3.1,88,0.00,,,0.00,WUHU216HW,2013-02-05 12:53:00,
2013-02-05 04:58:00,43.4,40.1,30.09,SE,135,0.2,0.9,88,0.00,,,0.00,WUHU216HW,2013-02-05 12:58:00,
2013-02-05 05:03:00,43.4,40.1,30.09,SE,135,0.4,0.9,88,0.00,,,0.00,WUHU216HW,2013-02-05 13:03:00,
2013-02-05 05:08:00,43.2,39.6,30.09,SE,135,0.0,0.7,87,0.00,,,0.00,WUHU216HW,2013-02-05 13:08:00,
2013-02-05 05:13:00,43.2,39.6,30.09,South,180,0.2,1.1,87,0.00,,,0.00,WUHU216HW,2013-02-05 13:13:00,
2013-02-05 05:18:00,43.0,39.4,30.09,South,180,0.4,1.1,87,0.00,,,0.00,WUHU216HW,2013-02-05 13:18:00,
2013-02-05 05:23:00,43.0,39.4,30.09,SSW,203,0.4,0.4,87,0.00,,,0.00,WUHU216HW,2013-02-05 13:23:00,
2013-02-05 05:28:00,42.8,39.3,30.09,South,180,0.0,0.7,87,0.00,,,0.00,WUHU216HW,2013-02-05 13:28:00,
2013-02-05 05:33:00,42.8,39.3,30.09,SSE,158,0.0,0.7,87,0.00,,,0.00,WUHU216HW,2013-02-05 13:33:00,
2013-02-05 05:39:00,42.7,39.1,30.09,SSE,158,0.0,0.4,87,0.00,,,0.00,WUHU216HW,2013-02-05 13:39:00,
2013-02-05 05:44:00,42.5,38.9,30.09,SSW,203,0.4,0.4,87,0.00,,,0.00,WUHU216HW,2013-02-05 13:44:00,
2013-02-05 05:49:00,42.5,39.2,30.09,SSW,203,0.2,0.4,88,0.00,,,0.00,WUHU216HW,2013-02-05 13:49:00,
2013-02-05 05:54:00,42.3,39.0,30.09,SSW,203,0.4,0.4,88,0.00,,,0.00,WUHU216HW,2013-02-05 13:54:00,
2013-02-05 05:59:00,42.3,39.0,30.09,South,180,2.0,2.0,88,0.00,,,0.00,WUHU216HW,2013-02-05 13:59:00,
2013-02-05 06:04:00,42.3,39.0,30.09,South,180,0.4,2.0,88,0.00,,,0.00,WUHU216HW,2013-02-05 14:04:00,
2013-02-05 06:09:00,42.3,39.3,30.09,SSE,158,0.0,1.8,89,0.00,,,0.00,WUHU216HW,2013-02-05 14:09:00,
2013-02-05 06:14:00,42.3,39.3,30.09,SSE,158,0.0,1.8,89,0.00,,,0.00,WUHU216HW,2013-02-05 14:14:00,
2013-02-05 06:19:00,42.1,38.8,30.08,SSE,158,0.0,1.1,88,0.00,,,0.00,WUHU216HW,2013-02-05 14:19:00,
2013-02-05 06:24:00,42.1,39.2,30.08,South,180,0.0,1.1,89,0.00,,,0.00,WUHU216HW,2013-02-05 14:24:00,
2013-02-05 06:29:00,42.1,39.2,30.09,South,180,0.0,1.1,89,0.00,,,0.00,WUHU216HW,2013-02-05 14:29:00,
2013-02-05 06:34:00,42.1,39.2,30.09,SE,135,0.2,1.1,89,0.00,,,0.00,WUHU216HW,2013-02-05 14:34:00,
2013-02-05 06:39:00,42.1,38.8,30.09,South,180,0.0,0.9,88,0.00,,,0.00,WUHU216HW,2013-02-05 14:39:00,
2013-02-05 06:44:00,42.1,39.2,30.09,SSE,158,0.0,0.4,89,0.00,,,0.00,WUHU216HW,2013-02-05 14:44:00,
2013-02-05 06:49:00,41.9,39.0,30.10,SSE,158,0.0,0.2,89,0.00,,,0.00,WUHU216HW,2013-02-05 14:49:00,
2013-02-05 06:54:00,41.8,38.8,30.10,SE,135,0.2,0.4,89,0.00,,,0.00,WUHU216HW,2013-02-05 14:54:00,
2013-02-05 06:59:00,41.8,38.8,30.10,SE,135,0.0,0.4,89,0.00,,,0.00,WUHU216HW,2013-02-05 14:59:00,
2013-02-05 07:05:00,41.8,38.8,30.10,SE,135,0.0,0.0,89,0.00,,,0.00,WUHU216HW,2013-02-05 15:05:00,
2013-02-05 07:10:00,41.6,38.6,30.10,SE,135,0.0,0.4,89,0.00,,,0.00,WUHU216HW,2013-02-05 15:10:00,
2013-02-05 07:15:00,41.6,38.6,30.11,SE,135,0.4,0.4,89,0.00,,,0.00,WUHU216HW,2013-02-05 15:15:00,
2013-02-05 07:20:00,41.8,38.8,30.11,SE,135,0.0,0.4,89,0.00,,,0.00,WUHU216HW,2013-02-05 15:20:00,
2013-02-05 07:25:00,41.8,38.8,30.11,SSE,158,0.0,0.4,89,0.00,,,0.00,WUHU216HW,2013-02-05 15:25:00,
2013-02-05 07:30:00,41.8,38.8,30.11,SSE,158,0.0,0.0,89,0.00,,,0.00,WUHU216HW,2013-02-05 15:30:00,
2013-02-05 07:35:00,41.8,38.8,30.11,SSE,158,0.4,0.4,89,0.00,,,0.00,WUHU216HW,2013-02-05 15:35:00,
2013-02-05 07:40:00,41.9,39.2,30.11,SE,135,0.0,0.9,90,0.00,,,0.00,WUHU216HW,2013-02-05 15:40:00,
2013-02-05 07:45:00,42.3,39.6,30.11,SSE,158,0.0,0.9,90,0.00,,,0.00,WUHU216HW,2013-02-05 15:45:00,
2013-02-05 07:50:00,42.5,39.8,30.11,ESE,113,0.2,0.9,90,0.00,,,0.00,WUHU216HW,2013-02-05 15:50:00,
2013-02-05 07:55:00,42.7,40.0,30.11,SE,135,0.4,0.9,90,0.00,,,0.00,WUHU216HW,2013-02-05 15:55:00,
2013-02-05 08:00:00,42.8,40.1,30.12,SSW,203,0.0,1.8,90,0.00,,,0.00,WUHU216HW,2013-02-05 16:00:00,
2013-02-05 08:05:00,43.2,40.5,30.12,SW,225,1.1,1.8,90,0.00,,,0.00,WUHU216HW,2013-02-05 16:05:00,
2013-02-05 08:10:00,43.6,40.9,30.12,SE,135,1.1,1.1,90,0.00,,,0.00,WUHU216HW,2013-02-05 16:10:00,
2013-02-05 08:15:00,43.9,41.2,30.12,SSE,158,0.9,1.8,90,0.00,,,0.00,WUHU216HW,2013-02-05 16:15:00,
2013-02-05 08:21:00,44.3,41.3,30.12,SSE,158,1.1,2.0,89,0.00,,,0.00,WUHU216HW,2013-02-05 16:21:00,
2013-02-05 08:26:00,44.6,41.9,30.12,SSE,158,0.7,2.5,90,0.00,,,0.00,WUHU216HW,2013-02-05 16:26:00,
2013-02-05 08:31:00,45.0,42.0,30.13,ESE,113,2.9,2.9,89,0.00,,,0.00,WUHU216HW,2013-02-05 16:31:00,
2013-02-05 08:36:00,45.4,42.4,30.12,SSE,158,0.7,2.9,89,0.00,,,0.00,WUHU216HW,2013-02-05 16:36:00,
2013-02-05 08:41:00,45.7,42.4,30.13,SSW,203,0.9,1.8,88,0.00,,,0.00,WUHU216HW,2013-02-05 16:41:00,
2013-02-05 08:46:00,45.9,42.6,30.13,SSE,158,0.7,1.8,88,0.00,,,0.00,WUHU216HW,2013-02-05 16:46:00,
2013-02-05 08:51:00,46.4,43.1,30.13,SSE,158,0.2,1.8,88,0.00,,,0.00,WUHU216HW,2013-02-05 16:51:00,
2013-02-05 08:56:00,46.8,43.2,30.13,SSE,158,0.9,1.8,87,0.00,,,0.00,WUHU216HW,2013-02-05 16:56:00,
2013-02-05 09:01:00,47.2,43.6,30.13,WSW,248,1.6,2.5,87,0.00,,,0.00,WUHU216HW,2013-02-05 17:01:00,
2013-02-05 09:06:00,47.5,43.6,30.13,ENE,68,0.4,2.5,86,0.00,,,0.00,WUHU216HW,2013-02-05 17:06:00,
2013-02-05 09:11:00,47.9,43.9,30.14,SW,225,2.2,3.1,86,0.00,,,0.00,WUHU216HW,2013-02-05 17:11:00,
2013-02-05 09:16:00,48.2,43.9,30.14,SSW,203,2.5,3.6,85,0.00,,,0.00,WUHU216HW,2013-02-05 17:16:00,
2013-02-05 09:21:00,48.6,44.3,30.14,WSW,248,4.0,4.3,85,0.00,,,0.00,WUHU216HW,2013-02-05 17:21:00,
2013-02-05 09:26:00,49.1,44.8,30.15,SSW,203,0.4,4.3,85,0.00,,,0.00,WUHU216HW,2013-02-05 17:26:00,
2013-02-05 09:31:00,49.7,45.3,30.15,South,180,2.7,2.7,85,0.00,,,0.00,WUHU216HW,2013-02-05 17:31:00,
2013-02-05 09:36:00,50.0,45.4,30.14,South,180,0.2,3.1,84,0.00,,,0.00,WUHU216HW,2013-02-05 17:36:00,
2013-02-05 09:41:00,50.2,45.2,30.15,NNW,338,0.2,3.8,83,0.00,,,0.00,WUHU216HW,2013-02-05 17:41:00,
2013-02-05 09:46:00,50.6,45.5,30.14,NW,315,0.4,3.8,83,0.00,,,0.00,WUHU216HW,2013-02-05 17:46:00,
2013-02-05 09:52:00,51.3,46.0,30.14,South,180,2.0,3.4,82,0.00,,,0.00,WUHU216HW,2013-02-05 17:52:00,
2013-02-05 09:57:00,51.8,45.9,30.14,SSE,158,1.8,4.9,80,0.00,,,0.00,WUHU216HW,2013-02-05 17:57:00,
2013-02-05 10:02:00,52.2,45.9,30.13,ESE,113,1.6,4.9,79,0.00,,,0.00,WUHU216HW,2013-02-05 18:02:00,
2013-02-05 10:07:00,52.4,46.1,30.14,South,180,0.7,3.1,79,0.00,,,0.00,WUHU216HW,2013-02-05 18:07:00,
2013-02-05 10:12:00,52.6,45.5,30.14,SSW,203,0.9,4.5,77,0.00,,,0.00,WUHU216HW,2013-02-05 18:12:00,
2013-02-05 10:17:00,52.9,46.3,30.14,SW,225,2.0,4.5,78,0.00,,,0.00,WUHU216HW,2013-02-05 18:17:00,
2013-02-05 10:22:00,52.9,45.2,30.15,SSW,203,3.1,5.1,75,0.00,,,0.00,WUHU216HW,2013-02-05 18:22:00,
2013-02-05 10:27:00,52.9,45.2,30.14,South,180,1.3,5.1,75,0.00,,,0.00,WUHU216HW,2013-02-05 18:27:00,
2013-02-05 10:32:00,53.1,45.7,30.14,SW,225,3.8,3.8,76,0.00,,,0.00,WUHU216HW,2013-02-05 18:32:00,
2013-02-05 10:37:00,53.1,45.7,30.14,SE,135,1.6,4.0,76,0.00,,,0.00,WUHU216HW,2013-02-05 18:37:00,
2013-02-05 10:42:00,53.3,45.5,30.14,SSE,158,4.0,4.7,75,0.00,,,0.00,WUHU216HW,2013-02-05 18:42:00,
2013-02-05 10:47:00,53.3,45.5,30.14,SW,225,3.8,4.7,75,0.00,,,0.00,WUHU216HW,2013-02-05 18:47:00,
2013-02-05 10:52:00,53.3,45.5,30.14,SSW,203,3.1,4.0,75,0.00,,,0.00,WUHU216HW,2013-02-05 18:52:00,
2013-02-05 10:57:00,53.3,45.2,30.14,NW,315,2.5,4.0,74,0.00,,,0.00,WUHU216HW,2013-02-05 18:57:00,
2013-02-05 11:02:00,53.3,45.5,30.14,SE,135,1.6,4.3,75,0.00,,,0.00,WUHU216HW,2013-02-05 19:02:00,
2013-02-05 11:08:00,53.5,45.7,30.14,South,180,1.3,4.9,75,0.00,,,0.00,WUHU216HW,2013-02-05 19:08:00,
2013-02-05 11:13:00,53.8,45.4,30.14,SSW,203,2.0,4.9,73,0.00,,,0.00,WUHU216HW,2013-02-05 19:13:00,
2013-02-05 11:18:00,54.0,45.6,30.13,South,180,1.8,3.8,73,0.00,,,0.00,WUHU216HW,2013-02-05 19:18:00,
2013-02-05 11:23:00,54.4,45.9,30.13,South,180,1.1,3.8,73,0.00,,,0.00,WUHU216HW,2013-02-05 19:23:00,
2013-02-05 11:28:00,54.7,46.6,30.13,SSE,158,1.8,3.4,74,0.00,,,0.00,WUHU216HW,2013-02-05 19:28:00,
2013-02-05 11:33:00,54.7,46.6,30.13,SE,135,2.9,4.5,74,0.00,,,0.00,WUHU216HW,2013-02-05 19:33:00,
2013-02-05 11:38:00,54.9,46.5,30.13,WSW,248,1.3,4.5,73,0.00,,,0.00,WUHU216HW,2013-02-05 19:38:00,
2013-02-05 11:43:00,55.1,46.6,30.13,ESE,113,0.7,3.4,73,0.00,,,0.00,WUHU216HW,2013-02-05 19:43:00,
2013-02-05 11:48:00,55.3,46.5,30.12,SSE,158,1.8,4.0,72,0.00,,,0.00,WUHU216HW,2013-02-05 19:48:00,
2013-02-05 11:53:00,55.4,46.6,30.12,SSW,203,2.9,4.0,72,0.00,,,0.00,WUHU216HW,2013-02-05 19:53:00,
2013-02-05 11:58:00,55.4,46.6,30.12,SSW,203,0.4,4.3,72,0.00,,,0.00,WUHU216HW,2013-02-05 19:58:00,
2013-02-05 12:03:00,55.3,46.7,30.12,SSW,203,2.5,4.3,73,0.00,,,0.00,WUHU216HW,2013-02-05 20:03:00,
2013-02-05 12:08:00,55.1,46.3,30.12,SSW,203,1.8,5.4,72,0.00,,,0.00,WUHU216HW,2013-02-05 20:08:00,
2013-02-05 12:13:00,55.1,46.6,30.11,SW,225,2.5,5.4,73,0.00,,,0.00,WUHU216HW,2013-02-05 20:13:00,
2013-02-05 12:18:00,54.9,46.5,30.11,WSW,248,2.5,2.5,73,0.00,,,0.00,WUHU216HW,2013-02-05 20:18:00,
2013-02-05 12:23:00,54.9,46.1,30.11,SE,135,4.0,5.1,72,0.00,,,0.00,WUHU216HW,2013-02-05 20:23:00,
2013-02-05 12:28:00,54.7,45.6,30.11,South,180,4.0,5.1,71,0.00,,,0.00,WUHU216HW,2013-02-05 20:28:00,
2013-02-05 12:34:00,54.4,45.9,30.11,SSW,203,2.5,4.0,73,0.00,,,0.00,WUHU216HW,2013-02-05 20:34:00,
2013-02-05 12:39:00,54.5,46.1,30.11,NNW,338,2.2,3.6,73,0.00,,,0.00,WUHU216HW,2013-02-05 20:39:00,
2013-02-05 12:44:00,54.7,45.9,30.11,SSE,158,3.4,3.8,72,0.00,,,0.00,WUHU216HW,2013-02-05 20:44:00,
2013-02-05 12:49:00,54.7,45.9,30.10,SSE,158,2.2,5.4,72,0.00,,,0.00,WUHU216HW,2013-02-05 20:49:00,
2013-02-05 12:54:00,54.9,45.7,30.11,SSW,203,4.3,5.4,71,0.00,,,0.00,WUHU216HW,2013-02-05 20:54:00,
2013-02-05 12:59:00,55.1,45.9,30.10,SSE,158,2.7,4.3,71,0.00,,,0.00,WUHU216HW,2013-02-05 20:59:00,
2013-02-05 13:04:00,55.1,45.9,30.10,SSE,158,3.4,4.5,71,0.00,,,0.00,WUHU216HW,2013-02-05 21:04:00,
2013-02-05 13:09:00,55.1,45.9,30.10,WSW,248,3.4,5.1,71,0.00,,,0.00,WUHU216HW,2013-02-05 21:09:00,
2013-02-05 13:14:00,55.1,45.9,30.10,SW,225,1.6,6.0,71,0.00,,,0.00,WUHU216HW,2013-02-05 21:14:00,
2013-02-05 13:19:00,55.1,45.9,30.10,NNW,338,1.1,6.0,71,0.00,,,0.00,WUHU216HW,2013-02-05 21:19:00,
2013-02-05 13:24:00,55.1,45.5,30.10,SSE,158,2.7,4.7,70,0.00,,,0.00,WUHU216HW,2013-02-05 21:24:00,
2013-02-05 13:29:00,55.1,45.5,30.10,SSW,203,3.6,4.7,70,0.00,,,0.00,WUHU216HW,2013-02-05 21:29:00,
2013-02-05 13:34:00,55.3,45.3,30.10,ENE,68,5.4,5.4,69,0.00,,,0.00,WUHU216HW,2013-02-05 21:34:00,
2013-02-05 13:39:00,55.4,46.3,30.09,SW,225,1.3,5.4,71,0.00,,,0.00,WUHU216HW,2013-02-05 21:39:00,
2013-02-05 13:44:00,55.6,45.6,30.09,South,180,2.0,5.4,69,0.00,,,0.00,WUHU216HW,2013-02-05 21:44:00,
2013-02-05 13:49:00,55.8,46.3,30.09,SW,225,2.5,5.4,70,0.00,,,0.00,WUHU216HW,2013-02-05 21:49:00,
2013-02-05 13:54:00,55.8,46.5,30.09,SSE,158,0.4,4.0,71,0.00,,,0.00,WUHU216HW,2013-02-05 21:54:00,
2013-02-05 14:00:00,55.8,46.5,30.09,SE,135,1.3,4.0,71,0.00,,,0.00,WUHU216HW,2013-02-05 22:00:00,
2013-02-05 14:05:00,55.8,46.3,30.09,SSW,203,4.3,4.7,70,0.00,,,0.00,WUHU216HW,2013-02-05 22:05:00,
2013-02-05 14:10:00,56.0,46.4,30.08,South,180,2.7,4.7,70,0.00,,,0.00,WUHU216HW,2013-02-05 22:10:00,
2013-02-05 14:15:00,55.8,46.3,30.08,SE,135,2.9,4.5,70,0.00,,,0.00,WUHU216HW,2013-02-05 22:15:00,
2013-02-05 14:20:00,55.8,46.3,30.08,SE,135,3.6,4.5,70,0.00,,,0.00,WUHU216HW,2013-02-05 22:20:00,
2013-02-05 14:25:00,55.8,46.3,30.08,SSW,203,0.7,3.6,70,0.00,,,0.00,WUHU216HW,2013-02-05 22:25:00,
2013-02-05 14:30:00,56.0,46.7,30.08,ESE,113,2.0,2.5,71,0.00,,,0.00,WUHU216HW,2013-02-05 22:30:00,
2013-02-05 14:35:00,56.2,46.5,30.08,SSE,158,2.5,3.1,70,0.00,,,0.00,WUHU216HW,2013-02-05 22:35:00,
2013-02-05 14:40:00,56.2,46.9,30.08,SE,135,2.5,3.1,71,0.00,,,0.00,WUHU216HW,2013-02-05 22:40:00,
2013-02-05 14:45:00,56.2,46.5,30.08,East,90,1.1,3.4,70,0.00,,,0.00,WUHU216HW,2013-02-05 22:45:00,
2013-02-05 14:50:00,56.3,46.7,30.08,NW,315,1.8,3.4,70,0.00,,,0.00,WUHU216HW,2013-02-05 22:50:00,
2013-02-05 14:55:00,56.3,47.1,30.08,SSW,203,1.1,3.4,71,0.00,,,0.00,WUHU216HW,2013-02-05 22:55:00,
2013-02-05 15:00:00,56.3,47.1,30.08,ESE,113,1.8,3.4,71,0.00,,,0.00,WUHU216HW,2013-02-05 23:00:00,
2013-02-05 15:05:00,56.3,47.1,30.08,SE,135,2.5,3.1,71,0.00,,,0.00,WUHU216HW,2013-02-05 23:05:00,
2013-02-05 15:10:00,56.3,47.1,30.08,NNW,338,0.4,2.5,71,0.00,,,0.00,WUHU216HW,2013-02-05 23:10:00,
2013-02-05 15:15:00,56.3,46.3,30.08,SSE,158,2.7,2.7,69,0.00,,,0.00,WUHU216HW,2013-02-05 23:15:00,
2013-02-05 15:20:00,56.5,46.9,30.08,SW,225,0.4,2.9,70,0.00,,,0.00,WUHU216HW,2013-02-05 23:20:00,
2013-02-05 15:25:00,56.5,47.3,30.08,NW,315,0.4,2.9,71,0.00,,,0.00,WUHU216HW,2013-02-05 23:25:00,
2013-02-05 15:30:00,56.5,46.9,30.09,NW,315,0.7,1.1,70,0.00,,,0.00,WUHU216HW,2013-02-05 23:30:00,
2013-02-05 15:35:00,56.5,47.3,30.09,North,0,0.2,1.1,71,0.00,,,0.00,WUHU216HW,2013-02-05 23:35:00,
2013-02-05 15:40:00,56.3,47.1,30.08,South,180,0.4,1.8,71,0.00,,,0.00,WUHU216HW,2013-02-05 23:40:00,
2013-02-05 15:45:00,56.2,46.5,30.08,SSE,158,1.1,1.8,70,0.00,,,0.00,WUHU216HW,2013-02-05 23:45:00,
2013-02-05 15:51:00,56.2,46.2,30.08,East,90,2.0,2.0,69,0.00,,,0.00,WUHU216HW,2013-02-05 23:51:00,
2013-02-05 15:56:00,56.3,46.3,30.08,SW,225,2.7,3.1,69,0.00,,,0.00,WUHU216HW,2013-02-05 23:56:00,
2013-02-05 16:01:00,56.3,46.3,30.08,SE,135,0.7,3.1,69,0.00,,,0.00,WUHU216HW,2013-02-06 00:01:00,
2013-02-05 16:06:00,56.3,46.3,30.08,NNE,23,0.4,2.0,69,0.00,,,0.00,WUHU216HW,2013-02-06 00:06:00,
2013-02-05 16:11:00,56.2,46.5,30.08,NW,315,0.7,2.5,70,0.00,,,0.00,WUHU216HW,2013-02-06 00:11:00,
2013-02-05 16:16:00,56.2,46.5,30.09,North,0,0.2,2.5,70,0.00,,,0.00,WUHU216HW,2013-02-06 00:16:00,
2013-02-05 16:21:00,56.0,46.4,30.08,SSE,158,0.7,1.8,70,0.00,,,0.00,WUHU216HW,2013-02-06 00:21:00,
2013-02-05 16:26:00,56.0,46.4,30.09,SSE,158,2.9,2.9,70,0.00,,,0.00,WUHU216HW,2013-02-06 00:26:00,
2013-02-05 16:31:00,56.0,46.4,30.09,SSE,158,1.6,2.9,70,0.00,,,0.00,WUHU216HW,2013-02-06 00:31:00,
2013-02-05 16:36:00,55.8,46.5,30.09,SSW,203,1.1,1.8,71,0.00,,,0.00,WUHU216HW,2013-02-06 00:36:00,
2013-02-05 16:41:00,55.8,46.5,30.09,SSW,203,0.4,2.0,71,0.00,,,0.00,WUHU216HW,2013-02-06 00:41:00,
2013-02-05 16:46:00,55.8,46.5,30.09,South,180,0.0,2.0,71,0.00,,,0.00,WUHU216HW,2013-02-06 00:46:00,
2013-02-05 16:51:00,55.6,46.5,30.09,South,180,0.9,1.1,71,0.00,,,0.00,WUHU216HW,2013-02-06 00:51:00,
2013-02-05 16:56:00,55.6,46.5,30.09,SSE,158,0.0,1.1,71,0.00,,,0.00,WUHU216HW,2013-02-06 00:56:00,
2013-02-05 17:01:00,55.4,46.3,30.09,ENE,68,0.2,1.1,71,0.00,,,0.00,WUHU216HW,2013-02-06 01:01:00,
2013-02-05 17:06:00,55.3,46.1,30.09,South,180,0.0,0.7,71,0.00,,,0.00,WUHU216HW,2013-02-06 01:06:00,
2013-02-05 17:11:00,55.1,46.3,30.09,South,180,0.0,0.7,72,0.00,,,0.00,WUHU216HW,2013-02-06 01:11:00,
2013-02-05 17:16:00,54.9,46.1,30.09,South,180,0.4,0.4,72,0.00,,,0.00,WUHU216HW,2013-02-06 01:16:00,
2013-02-05 17:21:00,54.7,45.9,30.09,South,180,0.0,0.4,72,0.00,,,0.00,WUHU216HW,2013-02-06 01:21:00,
2013-02-05 17:26:00,54.4,45.9,30.09,South,180,0.0,0.0,73,0.00,,,0.00,WUHU216HW,2013-02-06 01:26:00,
2013-02-05 17:31:00,54.2,45.7,30.09,South,180,0.0,0.0,73,0.00,,,0.00,WUHU216HW,2013-02-06 01:31:00,
2013-02-05 17:37:00,53.8,45.4,30.09,South,180,0.0,0.0,73,0.00,,,0.00,WUHU216HW,2013-02-06 01:37:00,
2013-02-05 17:42:00,53.6,45.2,30.09,South,180,0.0,0.0,73,0.00,,,0.00,WUHU216HW,2013-02-06 01:42:00,
2013-02-05 17:47:00,53.3,44.8,30.09,South,180,0.0,0.0,73,0.00,,,0.00,WUHU216HW,2013-02-06 01:47:00,
2013-02-05 17:52:00,52.9,44.6,30.09,South,180,0.0,0.0,73,0.00,,,0.00,WUHU216HW,2013-02-06 01:52:00,
2013-02-05 17:57:00,52.7,44.7,30.09,South,180,0.0,0.0,74,0.00,,,0.00,WUHU216HW,2013-02-06 01:57:00,
2013-02-05 18:02:00,52.4,44.4,30.09,South,180,0.0,0.0,74,0.00,,,0.00,WUHU216HW,2013-02-06 02:02:00,
2013-02-05 18:07:00,52.0,44.4,30.09,South,180,0.0,0.0,75,0.00,,,0.00,WUHU216HW,2013-02-06 02:07:00,
2013-02-05 18:12:00,51.7,44.0,30.10,South,180,0.0,0.4,75,0.00,,,0.00,WUHU216HW,2013-02-06 02:12:00,
2013-02-05 18:17:00,51.5,43.8,30.09,South,180,0.0,0.4,75,0.00,,,0.00,WUHU216HW,2013-02-06 02:17:00,
2013-02-05 18:22:00,51.3,44.0,30.10,South,180,0.4,0.4,76,0.00,,,0.00,WUHU216HW,2013-02-06 02:22:00,
2013-02-05 18:27:00,51.1,43.8,30.10,SSE,158,0.0,0.4,76,0.00,,,0.00,WUHU216HW,2013-02-06 02:27:00,
2013-02-05 18:32:00,50.9,44.0,30.10,ENE,68,0.2,0.4,77,0.00,,,0.00,WUHU216HW,2013-02-06 02:32:00,
2013-02-05 18:38:00,50.8,43.8,30.10,ENE,68,0.0,0.2,77,0.00,,,0.00,WUHU216HW,2013-02-06 02:38:00,
2013-02-05 18:43:00,50.6,43.9,30.10,ENE,68,0.9,0.9,78,0.00,,,0.00,WUHU216HW,2013-02-06 02:43:00,
2013-02-05 18:48:00,50.6,43.9,30.10,NE,45,0.0,0.9,78,0.00,,,0.00,WUHU216HW,2013-02-06 02:48:00,
2013-02-05 18:53:00,50.4,43.7,30.11,SE,135,0.2,0.4,78,0.00,,,0.00,WUHU216HW,2013-02-06 02:53:00,
2013-02-05 18:58:00,50.4,43.7,30.11,South,180,0.0,0.4,78,0.00,,,0.00,WUHU216HW,2013-02-06 02:58:00,
2013-02-05 19:03:00,50.2,43.6,30.11,NNE,23,0.0,0.4,78,0.00,,,0.00,WUHU216HW,2013-02-06 03:03:00,
2013-02-05 19:08:00,50.0,43.4,30.11,ESE,113,0.2,0.4,78,0.00,,,0.00,WUHU216HW,2013-02-06 03:08:00,
2013-02-05 19:13:00,50.0,43.4,30.11,West,270,0.0,0.4,78,0.00,,,0.00,WUHU216HW,2013-02-06 03:13:00,
2013-02-05 19:18:00,49.9,43.6,30.11,SSW,203,0.4,0.4,79,0.00,,,0.00,WUHU216HW,2013-02-06 03:18:00,
2013-02-05 19:23:00,49.7,43.4,30.11,SE,135,0.4,0.4,79,0.00,,,0.00,WUHU216HW,2013-02-06 03:23:00,
2013-02-05 19:28:00,49.5,43.2,30.11,SSW,203,0.7,0.7,79,0.00,,,0.00,WUHU216HW,2013-02-06 03:28:00,
2013-02-05 19:33:00,49.3,43.0,30.11,SE,135,0.0,0.7,79,0.00,,,0.00,WUHU216HW,2013-02-06 03:33:00,
2013-02-05 19:39:00,49.3,43.4,30.11,SE,135,0.4,1.1,80,0.00,,,0.00,WUHU216HW,2013-02-06 03:39:00,
2013-02-05 19:44:00,49.3,43.4,30.11,SE,135,0.2,1.1,80,0.00,,,0.00,WUHU216HW,2013-02-06 03:44:00,
2013-02-05 19:48:00,49.1,43.2,30.11,ESE,113,0.2,0.4,80,0.00,,,0.00,WUHU216HW,2013-02-06 03:48:00,
2013-02-05 19:54:00,49.0,43.0,30.11,ESE,113,0.0,0.9,80,0.00,,,0.00,WUHU216HW,2013-02-06 03:54:00,
2013-02-05 19:59:00,49.0,43.0,30.11,SSE,158,0.7,1.1,80,0.00,,,0.00,WUHU216HW,2013-02-06 03:59:00,
2013-02-05 20:04:00,48.8,42.8,30.11,SE,135,0.0,1.1,80,0.00,,,0.00,WUHU216HW,2013-02-06 04:04:00,
2013-02-05 20:09:00,48.6,42.7,30.12,ESE,113,0.0,0.2,80,0.00,,,0.00,WUHU216HW,2013-02-06 04:09:00,
2013-02-05 20:14:00,48.4,42.9,30.12,SE,135,0.2,0.7,81,0.00,,,0.00,WUHU216HW,2013-02-06 04:14:00,
2013-02-05 20:19:00,48.2,42.3,30.12,SSE,158,0.0,0.7,80,0.00,,,0.00,WUHU216HW,2013-02-06 04:19:00,
2013-02-05 20:24:00,48.1,42.1,30.12,SSE,158,0.0,0.4,80,0.00,,,0.00,WUHU216HW,2013-02-06 04:24:00,
2013-02-05 20:29:00,47.7,41.9,30.12,SSE,158,0.0,0.0,80,0.00,,,0.00,WUHU216HW,2013-02-06 04:29:00,
2013-02-05 20:34:00,47.5,41.7,30.12,SSE,158,0.0,0.0,80,0.00,,,0.00,WUHU216HW,2013-02-06 04:34:00,
2013-02-05 20:39:00,47.3,41.8,30.12,SSE,158,0.0,0.0,81,0.00,,,0.00,WUHU216HW,2013-02-06 04:39:00,
2013-02-05 20:44:00,47.2,41.7,30.12,SSE,158,0.0,0.0,81,0.00,,,0.00,WUHU216HW,2013-02-06 04:44:00,
2013-02-05 20:49:00,47.0,41.5,30.13,SSE,158,0.0,0.0,81,0.00,,,0.00,WUHU216HW,2013-02-06 04:49:00,
2013-02-05 20:54:00,46.8,41.3,30.13,SSE,158,0.0,0.0,81,0.00,,,0.00,WUHU216HW,2013-02-06 04:54:00,
2013-02-05 20:59:00,46.6,41.1,30.13,SSE,158,0.0,0.0,81,0.00,,,0.00,WUHU216HW,2013-02-06 04:59:00,
2013-02-05 21:00:00,46.6,41.1,30.13,SSE,158,0.0,0.0,81,0.00,,,0.00,WUHU216HW,2013-02-06 05:00:00,
2013-02-05 21:05:00,46.4,41.3,30.13,SSE,158,0.0,0.0,82,0.00,,,0.00,WUHU216HW,2013-02-06 05:05:00,
2013-02-05 21:11:00,46.3,41.1,30.13,SSE,158,0.0,0.0,82,0.00,,,0.00,WUHU216HW,2013-02-06 05:11:00,
2013-02-05 21:16:00,46.1,41.0,30.13,SSE,158,0.0,0.0,82,0.00,,,0.00,WUHU216HW,2013-02-06 05:16:00,
2013-02-05 21:21:00,45.9,40.8,30.13,SSE,158,0.0,0.0,82,0.00,,,0.00,WUHU216HW,2013-02-06 05:21:00,
2013-02-05 21:26:00,45.9,40.8,30.13,SSE,158,0.0,0.0,82,0.00,,,0.00,WUHU216HW,2013-02-06 05:26:00,
2013-02-05 21:31:00,45.7,40.9,30.14,SSE,158,0.0,0.0,83,0.00,,,0.00,WUHU216HW,2013-02-06 05:31:00,
2013-02-05 21:36:00,45.7,40.9,30.13,SSE,158,0.0,0.0,83,0.00,,,0.00,WUHU216HW,2013-02-06 05:36:00,
2013-02-05 21:41:00,45.5,40.7,30.14,SSE,158,0.0,0.0,83,0.00,,,0.00,WUHU216HW,2013-02-06 05:41:00,
2013-02-05 21:46:00,45.4,40.5,30.14,SSE,158,0.0,0.0,83,0.00,,,0.00,WUHU216HW,2013-02-06 05:46:00,
2013-02-05 21:51:00,45.4,40.9,30.14,SSE,158,0.0,0.0,84,0.00,,,0.00,WUHU216HW,2013-02-06 05:51:00,
2013-02-05 21:56:00,45.2,40.7,30.14,SSE,158,0.0,0.0,84,0.00,,,0.00,WUHU216HW,2013-02-06 05:56:00,
2013-02-05 22:01:00,45.0,40.5,30.14,SSE,158,0.0,0.0,84,0.00,,,0.00,WUHU216HW,2013-02-06 06:01:00,
2013-02-05 22:06:00,45.0,40.5,30.15,SSE,158,0.0,0.0,84,0.00,,,0.00,WUHU216HW,2013-02-06 06:06:00,
2013-02-05 22:11:00,44.8,40.3,30.14,SSE,158,0.0,0.0,84,0.00,,,0.00,WUHU216HW,2013-02-06 06:11:00,
2013-02-05 22:16:00,44.6,40.2,30.15,SSE,158,0.0,0.0,84,0.00,,,0.00,WUHU216HW,2013-02-06 06:16:00,
2013-02-05 22:21:00,44.6,40.2,30.14,SSE,158,0.0,0.0,84,0.00,,,0.00,WUHU216HW,2013-02-06 06:21:00,
2013-02-05 22:26:00,44.5,40.2,30.14,SSE,158,0.0,0.0,85,0.00,,,0.00,WUHU216HW,2013-02-06 06:26:00,
2013-02-05 22:32:00,44.3,40.1,30.14,SSE,158,0.0,0.0,85,0.00,,,0.00,WUHU216HW,2013-02-06 06:32:00,
2013-02-05 22:37:00,44.3,40.1,30.14,SSE,158,0.0,0.0,85,0.00,,,0.00,WUHU216HW,2013-02-06 06:37:00,
2013-02-05 22:42:00,44.3,40.1,30.14,SSE,158,0.0,0.0,85,0.00,,,0.00,WUHU216HW,2013-02-06 06:42:00,
2013-02-05 22:47:00,44.1,39.9,30.15,SSE,158,0.0,0.0,85,0.00,,,0.00,WUHU216HW,2013-02-06 06:47:00,
2013-02-05 22:52:00,43.9,39.7,30.15,SSE,158,0.0,0.0,85,0.00,,,0.00,WUHU216HW,2013-02-06 06:52:00,
2013-02-05 22:57:00,43.9,39.7,30.15,SSE,158,0.0,0.0,85,0.00,,,0.00,WUHU216HW,2013-02-06 06:57:00,
2013-02-05 23:02:00,43.7,39.5,30.15,SSE,158,0.0,0.0,85,0.00,,,0.00,WUHU216HW,2013-02-06 07:02:00,
2013-02-05 23:07:00,43.6,39.3,30.15,SSE,158,0.0,0.0,85,0.00,,,0.00,WUHU216HW,2013-02-06 07:07:00,
2013-02-05 23:12:00,43.6,39.3,30.15,SSE,158,0.0,0.0,85,0.00,,,0.00,WUHU216HW,2013-02-06 07:12:00,
2013-02-05 23:17:00,43.4,39.2,30.16,SSE,158,0.0,0.0,85,0.00,,,0.00,WUHU216HW,2013-02-06 07:17:00,
2013-02-05 23:22:00,43.4,39.2,30.16,SSE,158,0.0,0.0,85,0.00,,,0.00,WUHU216HW,2013-02-06 07:22:00,
2013-02-05 23:27:00,43.4,39.4,30.16,SSE,158,0.0,0.0,86,0.00,,,0.00,WUHU216HW,2013-02-06 07:27:00,
2013-02-05 23:32:00,43.2,39.0,30.16,SSE,158,0.0,0.0,85,0.00,,,0.00,WUHU216HW,2013-02-06 07:32:00,
2013-02-05 23:37:00,43.2,39.0,30.16,SSE,158,0.0,0.0,85,0.00,,,0.00,WUHU216HW,2013-02-06 07:37:00,
2013-02-05 23:42:00,43.0,38.8,30.17,SSE,158,0.0,0.0,85,0.00,,,0.00,WUHU216HW,2013-02-06 07:42:00,
2013-02-05 23:47:00,42.8,38.6,30.16,SSE,158,0.0,0.0,85,0.00,,,0.00,WUHU216HW,2013-02-06 07:47:00,
2013-02-05 23:52:00,42.8,38.6,30.16,SSE,158,0.0,0.0,85,0.00,,,0.00,WUHU216HW,2013-02-06 07:52:00,
2013-02-05 23:57:00,42.8,38.9,30.16,SSE,158,0.0,0.0,86,0.00,,,0.00,WUHU216HW,2013-02-06 07:57:00,